User: anonymous   Login
Location: Unspecified
(0.0000°N, 0.0000°E)
Time: 07:07:21
(UTC+00:00)
Language:

CORVUS BC1 - Orbit

View from above orbital plane
View from above orbital plane
View from above satellite
View from above satellite

Ground track
Ground track

The orbit data is extracted from the following two-line orbital elements,

1 42847U 17042Y   17291.79169965  .00000138  00000-0  18998-4 0  9992
2 42847  97.6074 198.1696 0007798 283.1300  76.9048 14.91783933 14375
Epoch (UTC): 18 October 2017 19:00:02
Eccentricity: 0.0007798
inclination: 97.6074°
perigee height: 587 km
apogee height: 598 km
right ascension of ascending node: 198.1696°
argument of perigee: 283.1300°
revolutions per day: 14.91783933
mean anomaly at epoch: 76.9048°
orbit number at epoch: 1437

The dashed part of the orbit path shows where the satellite is in the earth's shadow,  

DLR